IUS R/B(2), 26883

Orbit data source: Space-Track

IUS R/B(2), 26883 is space debris in GEO originally from a launch on Mon, 06 Aug 2001 UTC launched from the Air Force Eastern Test Range (AFETR). Debris objects in space refer to the collection of defunct objects orbiting the Earth. Examples of debris include non-operational satellites, rocket bodies, and fragments generated from explosions, collisions, or faulty payload assembly.

Not visible in the next 10 days
Identifier
26883, 2001-033D
Orbit
GEO
Country
Flag of USUS
Related business
Manufacturer
PW CSD
Mission
Spacecraft
Bus & Motor
ORBUS 6, ORBUS 6
Mass
1,079 kg wet, 1,079 kg dry
Launch date (UTC)
2001-08-06 (24 years ago)
Launch vehicle
Unknown
Launch site
Air Force Eastern Test Range (AFETR)
Object type
Payload
Rocket body
Debris
Shape & HBR
Cyl, 1.4 m
Radar Cross Section
8.086 m²

Expand to show TLE details & history
Last TLE update: 2 days ago

TLE from 2 days ago
0 IUS R/B(2)
1 26883U 01033D   25309.50433965 -.00000260  00000-0  00000-0 0  9997
2 26883  12.7055  18.2691 0005585   5.1076 354.8590  0.99905529 23555
Epoch: 2025-11-05T12:06Z
TLE epoch observation values (Epoch: 2025-11-05T12:06:14.945Z)
Latitude
0.00001°
Longitude
151.66395°
Altitude
35,865.515 km
Speed
3.073 km/s
True Right ascension
01h 12m 48s
True Declination
0° 00' 00"
Sunlit
Object was in daylight at epoch
Visualization orbit readout
Latitude
Unknown
Longitude
Unknown
Altitude
Unknown
Speed
Unknown
Apparent Right ascension
Unknown
Apparent Declination
Unknown
Sunlit
N/A
Visualization observer readout
Local Sidereal Time
23:11:10
Azimuth
Unknown
Elevation
Unknown
Doppler factor
Unknown
Orbital elements
Apogee altitude
35,914.183 km
Perigee altitude
35,866.969 km
Semi-major axis
42,268.713 km
Eccentricity
0.00056
Inclination
12.7055°
RAAN
18.2691°
Arg. of periapsis
5.1076°
True anomaly
354.85326°
Mean anomaly
354.859°
Eccentric anomaly
354.85613°
Mean motion
0.24976 °/min
Orbital period
1,441.41 mins
BSTAR
0
Loading maneuver chart data...
Computing Atmospheric mass density...
Loading historical data...
Loading historical data...
Loading historical data...
Loading historical data...
Loading historical data...
Loading historical data...
Loading historical data...
Other satellites on launch #33 in the year 2001 (2001-08-06 UTC)

Documentation

Showing up to 5 results
|